Vorticity
7 8 7 7 7 7 6 5 6 6 5 6 6 7 7 7 6 6 7 9 8 9 10 10 10 10 9 9 8 6 6 6 5 4 4 4 5 4 3 3 6 12 13 9 5 4 3 3 3 3 4 4 3 3 3 3 2 1 2 4 4 5 8 11 12 9 8 9 11 12 14 13 9 7 7 7 5 3 3 4 5 5 6 7 9
7 8 7 7 7 5 5 6 5 5 6 7 8 7 8 7 6 7 7 8 9 10 11 12 12 12 12 12 12 9 7 6 6 5 5 4 4 5 5 4 4 7 12 12 9 6 4 3 2 2 3 4 3 3 3 2 2 2 1 2 2 2 4 8 11 11 7 4 4 4 8 13 15 14 12 9 9 9 9 8 9 9 10 12 15
7 9 8 8 8 7 7 6 4 6 6 6 8 8 8 8 7 7 8 9 10 10 10 11 11 12 12 12 13 12 10 7 6 5 5 5 4 4 5 6 6 6 9 12 11 8 6 4 2 2 3 3 3 2 3 2 2 2 2 2 3 2 2 3 6 8 7 5 3 1 0 3 8 14 16 13 10 11 12 11 11 11 12 15 18
8 9 8 8 9 7 6 6 6 7 6 6 7 7 8 9 8 7 9 10 10 9 9 9 9 11 12 13 13 13 13 11 9 8 7 5 5 5 6 7 7 6 7 10 12 11 8 6 5 3 3 4 3 2 3 3 2 1 1 2 3 3 4 2 2 2 4 6 7 6 4 3 3 6 10 11 9 9 10 11 12 12 13 15 16
7 8 7 6 7 6 5 7 8 8 8 8 8 9 9 8 8 7 8 9 9 8 8 7 8 10 12 15 15 15 15 15 13 12 11 9 8 7 8 8 8 7 6 8 11 12 9 7 6 5 5 5 3 2 2 2 2 1 1 1 2 3 4 4 3 2 1 2 3 5 5 3 2 3 5 6 7 8 8 8 9 10 12 13 13
8 7 6 5 5 5 5 6 8 9 9 10 9 8 9 7 7 6 6 8 9 8 7 8 11 12 12 15 17 15 16 16 15 14 12 13 12 10 10 11 11 10 8 7 8 11 11 7 6 6 7 5 3 3 3 2 2 2 1 1 1 2 3 3 4 4 3 2 1 1 2 2 2 1 2 4 4 6 8 8 7 7 8 11 12
7 7 6 5 2 2 4 3 6 7 7 8 7 6 7 8 7 6 5 7 8 7 7 10 12 12 11 12 14 15 15 15 16 16 15 16 16 15 14 14 16 16 14 11 9 9 10 8 6 6 8 7 4 2 2 3 3 2 1 1 0 0 2 3 3 3 4 4 3 1 1 3 5 3 1 1 1 2 4 5 5 5 5 7 10
8 7 8 8 2 0 2 1 4 7 5 5 5 4 6 7 6 6 5 6 7 7 8 10 12 12 11 10 10 12 13 13 14 14 13 14 14 15 14 14 16 18 18 17 14 13 13 9 6 5 6 9 8 4 4 4 4 3 2 2 1 0 1 2 4 4 3 3 4 4 2 2 5 4 1 1 1 2 1 0 2 3 1 1 4
8 6 6 8 5 1 1 0 3 6 5 5 4 3 4 4 5 6 5 6 7 8 9 12 12 11 10 9 9 11 11 10 10 10 10 10 10 11 11 11 12 14 16 18 17 17 16 12 9 6 5 8 8 7 7 6 5 4 3 2 2 2 1 0 2 3 3 3 3 3 2 3 4 3 1 1 2 3 1 -1 0 1 -1 -0 2
9 7 6 7 7 4 3 2 4 8 8 6 4 3 3 5 7 6 6 8 8 8 10 12 11 10 8 8 8 10 9 8 7 7 6 6 7 8 9 9 9 11 13 15 16 16 17 16 13 8 5 6 7 8 9 9 8 6 4 4 4 2 2 1 0 1 2 3 3 2 1 1 2 1 1 1 1 2 1 -1 1 2 -1 -0 2
9 10 9 9 8 8 7 6 8 12 11 7 5 4 3 5 8 8 7 9 9 9 11 12 11 8 6 7 7 8 8 6 4 4 3 3 4 4 6 7 8 9 11 13 15 15 16 16 15 12 9 7 6 6 7 9 10 8 7 6 5 4 4 2 0 1 1 1 2 2 1 0 1 1 -0 0 -0 0 1 0 0 2 2 1 -0
8 9 12 15 14 15 14 14 15 16 14 10 7 4 4 7 10 9 9 11 10 9 9 9 10 8 5 6 6 6 6 3 2 2 2 2 2 3 5 7 8 9 9 10 12 13 15 16 16 16 15 12 9 7 7 7 7 8 8 8 7 7 6 4 3 2 0 1 0 -0 0 -0 0 0 0 1 -0 -1 1 1 0 2 2 0 -1
6 5 10 17 18 16 16 18 20 18 14 11 7 5 7 9 10 10 10 11 11 11 10 7 8 8 8 7 4 3 4 5 5 4 3 3 3 3 4 7 8 8 6 7 8 9 11 13 13 15 16 16 16 15 14 11 8 7 6 5 6 6 5 5 5 3 2 2 1 0 1 0 -0 0 1 1 0 -0 1 1 1 3 2 1 1
3 1 5 12 14 14 14 16 18 15 12 11 8 8 9 10 11 13 12 11 11 12 11 8 7 7 7 7 5 3 3 6 7 7 7 8 6 5 5 6 6 5 4 5 5 5 6 6 7 7 8 10 12 15 18 19 16 14 10 7 5 4 5 5 5 5 4 3 2 1 0 1 1 0 1 1 1 1 1 2 2 4 4 5 6
1 1 2 8 15 19 16 12 13 14 12 12 10 9 11 12 13 12 10 9 11 12 11 10 10 8 6 7 8 8 7 8 9 8 7 5 4 5 5 5 4 4 6 7 6 6 6 4 4 3 3 4 4 6 10 13 16 17 16 15 12 9 10 10 6 5 4 3 4 3 1 2 1 -1 1 1 1 1 1 2 2 2 4 4 5
2 4 4 6 17 25 19 11 10 11 10 9 9 10 12 12 10 9 9 10 11 12 12 11 11 10 8 7 7 7 8 8 9 8 4 2 4 5 6 6 6 5 7 9 9 9 7 6 5 4 4 3 1 3 4 3 7 11 11 12 13 13 14 14 12 10 7 5 5 3 3 3 1 2 3 1 2 2 1 1 1 1 3 2 1
2 5 3 4 16 25 21 15 12 10 10 10 12 13 13 9 8 8 9 11 12 12 11 10 9 9 8 7 6 6 5 4 6 7 6 7 8 6 4 5 4 3 3 5 6 8 8 8 7 6 6 5 2 5 5 -0 -0 5 6 6 6 7 9 9 11 11 11 10 8 6 6 5 3 4 3 2 5 4 1 2 2 3 7 8 8
3 5 1 3 15 19 15 15 15 14 15 15 13 12 9 7 7 7 6 8 9 10 10 9 7 5 4 5 5 5 4 4 3 3 3 3 2 1 3 4 4 4 3 1 2 5 6 7 8 8 9 7 5 6 6 4 1 0 2 5 4 4 5 6 7 7 6 7 6 6 6 6 5 5 4 4 6 3 2 3 4 8 11 12 16
5 7 2 5 14 12 5 6 7 7 9 9 6 6 6 7 7 5 5 5 5 6 8 7 6 5 4 6 7 6 7 6 4 2 2 2 2 2 4 4 4 4 3 1 1 3 3 6 9 12 12 10 9 8 6 6 5 2 1 2 1 3 5 6 6 5 4 7 8 8 5 3 4 4 3 4 3 3 5 3 6 11 6 7 17
9 9 4 5 11 10 4 3 2 1 3 3 2 3 5 7 7 5 5 5 5 6 6 6 7 8 8 9 9 8 7 7 7 7 7 7 8 6 5 5 5 4 2 1 2 3 4 5 7 10 11 10 11 13 11 8 6 6 6 5 4 5 3 2 3 3 3 5 9 12 10 7 7 4 3 5 4 7 10 6 6 8 2 7 12
14 13 9 5 7 8 5 3 2 2 2 2 2 3 4 6 8 6 5 6 7 7 6 4 5 5 5 5 3 2 4 5 6 8 8 7 6 4 5 6 6 4 3 2 2 3 4 3 3 4 4 4 6 11 16 15 9 5 5 6 8 7 2 -0 1 1 2 2 2 6 7 7 9 9 10 13 9 8 11 6 1 1 4 12 5
17 16 15 12 10 8 5 4 5 5 5 3 3 3 4 6 7 6 7 8 8 8 6 4 3 4 3 3 2 3 4 4 4 4 4 5 4 3 5 7 7 7 6 4 4 4 3 2 3 1 -0 1 2 2 8 16 15 11 9 6 5 4 2 3 4 4 7 7 4 6 7 6 8 10 12 13 7 5 8 4 -1 -1 7 14 4
16 14 14 15 15 11 6 4 5 5 7 6 5 4 5 5 3 3 5 5 4 5 5 4 3 2 1 1 2 3 3 4 4 5 7 7 5 4 6 8 8 7 4 4 5 3 2 4 4 0 -2 1 2 -0 4 11 12 13 14 11 8 7 6 6 6 6 6 6 8 12 12 10 12 12 13 13 9 10 15 14 9 2 1 7 3
13 12 10 11 13 12 8 7 6 4 5 6 5 4 4 3 3 3 3 2 2 3 4 3 2 0 1 2 2 2 3 5 6 9 11 9 5 5 6 5 5 3 1 4 7 4 3 5 5 3 1 0 0 2 6 9 10 12 13 11 10 9 6 5 5 4 3 7 13 14 8 5 8 11 20 24 13 3 4 10 11 3 -5 2 6
9 11 10 9 8 8 8 9 8 5 3 4 4 4 3 3 4 3 3 3 3 2 2 3 2 1 2 2 1 2 3 5 6 7 8 7 5 5 5 3 4 3 2 6 9 7 4 4 5 6 4 1 3 6 7 7 9 9 9 9 8 7 8 10 9 5 3 6 9 7 2 1 2 3 12 18 6 -6 -4 3 7 4 1 4 7
5 8 10 9 8 8 8 9 10 9 5 3 3 4 4 3 3 2 2 1 1 1 2 2 2 3 3 2 2 2 2 5 6 4 4 4 4 4 4 4 4 4 5 8 10 7 4 5 5 4 2 4 8 8 4 3 6 9 11 11 8 5 6 8 7 6 6 5 4 3 1 2 3 0 2 5 2 -1 2 5 3 -1 0 5 9
5 6 8 8 8 9 10 9 9 10 9 7 5 5 4 3 2 3 2 1 1 2 2 2 2 2 2 1 2 2 4 7 6 2 2 5 5 4 4 4 5 5 6 7 7 4 4 4 3 2 3 7 7 1 -3 -2 3 8 10 9 8 8 8 7 5 5 7 7 6 6 4 3 3 1 -1 -1 -2 -4 -2 1 0 -2 2 9 11
6 5 6 7 7 8 10 9 8 9 11 12 10 7 5 4 3 3 3 3 2 2 2 2 2 1 1 1 2 4 7 7 4 3 4 4 3 4 5 6 7 8 7 6 4 3 2 2 3 5 6 6 3 -1 -3 -1 2 6 9 9 8 9 9 8 4 2 3 4 4 5 7 6 5 5 4 2 -0 1 3 5 3 3 8 11 4
6 5 5 5 6 7 7 7 8 8 10 11 10 7 6 6 4 2 2 3 2 2 1 1 1 2 3 4 5 7 8 6 3 3 3 1 3 5 8 10 11 10 10 7 3 1 3 4 5 6 5 4 3 3 4 5 4 6 9 10 10 12 15 14 13 11 10 8 6 5 6 5 4 8 10 5 3 5 8 9 9 9 13 12 -0
6 6 5 4 5 6 6 7 9 9 8 8 9 7 7 7 5 4 4 5 4 4 4 4 5 7 7 7 8 7 6 4 4 3 2 3 6 9 12 14 12 11 12 7 0 2 6 6 4 4 3 3 4 5 7 7 7 9 12 14 14 13 11 10 11 13 12 10 8 8 8 7 6 9 9 4 4 7 8 11 15 14 14 11 -2
6 5 5 6 5 4 5 7 8 8 7 6 8 8 6 6 6 6 7 8 8 7 7 7 7 7 8 8 6 5 4 3 3 3 5 8 10 12 14 13 10 10 8 2 -0 4 5 3 3 5 4 4 7 8 7 7 9 12 15 15 13 8 6 6 4 3 5 8 8 8 9 10 10 12 11 8 9 10 8 11 16 11 5 2 -5
8 6 5 6 6 5 5 5 6 7 8 7 7 6 5 5 5 5 5 5 5 4 4 5 5 5 6 6 5 5 6 6 7 8 10 10 10 11 10 7 5 4 0 -1 2 4 3 4 7 8 8 8 8 8 6 8 13 15 13 13 14 14 15 15 12 11 15 18 18 18 16 11 6 7 9 8 10 8 2 8 23 21 5 -5 -4
8 7 6 6 6 6 6 6 6 7 8 9 8 7 7 6 5 5 5 4 4 4 5 6 6 6 6 6 7 8 9 11 12 12 11 11 10 7 5 2 1 1 1 3 4 5 7 10 10 11 12 10 7 7 7 9 17 19 14 11 11 11 12 14 17 23 25 23 26 35 34 23 13 8 7 9 10 6 1 7 21 19 2 -8 -4
10 9 9 8 8 9 8 7 7 6 6 7 7 6 6 6 4 4 5 5 6 7 7 7 7 7 7 7 8 8 9 10 11 10 8 8 5 2 1 2 2 3 4 6 7 10 13 12 9 10 11 9 9 11 9 12 20 21 15 12 11 11 13 14 14 19 19 16 19 25 25 26 24 19 21 26 20 9 9 15 20 18 10 7 11
10 10 11 9 8 10 9 7 8 7 6 6 6 5 6 6 6 7 6 6 7 8 8 9 9 9 10 9 7 7 8 7 6 5 4 2 0 -1 1 3 4 5 7 9 12 12 10 9 11 14 15 16 17 15 13 16 19 14 12 15 16 17 19 16 14 17 20 20 19 14 16 27 26 16 23 32 19 7 8 9 10 12 7 6 16
9 8 9 9 9 9 8 8 8 8 7 8 7 7 7 7 7 8 7 6 7 7 7 8 8 8 9 9 8 9 8 6 6 5 3 1 1 2 3 4 7 11 13 14 14 12 11 13 15 15 17 17 14 13 14 16 14 13 15 16 16 18 16 11 13 18 21 24 25 20 28 42 29 6 14 25 13 5 9 1 -5 0 1 5 23
7 7 7 8 8 7 7 8 8 7 9 9 8 8 8 6 6 6 5 4 6 6 6 7 6 6 6 7 8 8 6 6 7 6 3 2 3 4 7 10 14 16 16 14 13 14 14 14 11 11 14 13 10 14 17 15 16 18 16 12 12 13 11 14 27 36 39 40 32 20 31 53 39 11 13 25 14 5 6 0 -3 5 10 18 30
8 8 7 7 7 7 6 6 7 7 8 8 8 8 6 5 4 4 3 3 4 5 7 8 8 8 7 6 5 5 4 5 6 3 2 4 7 11 15 16 15 14 12 10 12 12 11 13 15 18 19 18 18 20 18 16 18 17 11 11 14 13 20 37 46 42 34 26 15 12 33 62 62 35 16 12 8 6 9 15 20 19 11 10 18
6 5 5 5 5 5 5 6 7 8 7 6 6 7 6 5 5 4 4 5 5 4 5 5 5 8 7 3 3 4 4 4 3 2 6 12 16 18 18 14 12 11 9 8 10 10 11 16 20 20 20 21 21 19 15 16 17 12 9 13 15 20 44 61 58 56 53 29 11 23 35 30 27 25 12 7 19 28 27 27 28 19 5 4 15
5 5 5 5 4 5 6 7 6 6 6 6 6 6 5 5 5 4 4 5 5 6 5 2 2 6 6 4 4 4 2 2 6 11 18 20 19 16 13 10 10 11 9 9 9 8 10 14 15 17 22 21 17 16 14 12 12 10 10 16 22 35 46 39 37 68 82 42 20 46 41 -3 -10 17 24 21 33 35 21 14 14 11 11 18 25
6 5 4 4 5 5 6 6 6 7 7 7 7 6 6 6 6 6 6 6 7 11 12 6 4 7 9 7 5 3 5 12 18 22 21 16 10 8 8 9 12 12 10 10 10 7 10 13 13 19 25 19 13 15 12 8 12 12 8 18 36 35 10 -19 -11 30 41 13 16 49 33 -4 9 39 28 8 9 8 4 12 18 18 24 28 23
5 5 5 6 6 6 6 6 7 8 8 9 9 8 8 8 8 8 8 7 6 9 10 8 7 10 11 10 10 12 18 24 22 17 12 8 6 7 6 8 12 13 10 11 11 9 10 11 12 19 24 17 12 13 9 6 12 8 5 31 63 56 21 -2 3 19 16 4 16 35 26 16 29 25 -4 -14 1 10 18 30 31 26 27 23 14
8 7 6 6 6 6 7 6 7 9 10 11 12 11 10 10 9 8 8 7 7 10 12 13 14 14 12 13 17 21 22 19 12 7 6 5 6 8 6 6 11 14 13 12 13 12 11 11 13 18 20 14 11 11 8 9 11 5 10 37 55 46 39 44 44 38 35 28 21 20 21 21 13 -7 -18 -1 21 27 29 32 26 20 18 12 10
11 10 9 8 7 6 6 5 6 8 9 9 8 8 8 9 8 6 6 7 10 13 16 17 17 15 13 15 19 19 15 9 5 4 6 6 6 8 8 6 8 11 11 11 11 12 13 14 14 16 16 12 11 11 10 11 9 4 11 21 7 -12 7 47 60 51 48 46 36 20 0 -16 -14 1 15 25 27 23 20 18 14 11 12 11 11
11 9 8 7 6 6 8 8 9 9 9 7 7 7 8 8 7 6 7 8 8 9 12 16 19 18 17 19 20 14 7 5 4 4 7 9 8 8 9 9 8 9 10 11 13 14 14 13 13 14 14 12 12 10 9 10 10 5 8 17 11 -3 7 36 51 40 19 7 11 15 4 -4 10 28 27 18 15 15 13 11 11 11 12 12 11
16 16 15 13 13 14 15 14 13 12 11 9 8 7 8 8 7 6 7 9 10 10 13 19 23 22 21 20 16 9 5 6 5 5 8 11 10 10 11 12 11 10 10 12 13 12 12 13 13 13 12 11 11 11 8 8 10 10 10 16 24 25 23 27 36 40 31 18 17 23 23 21 23 19 9 8 12 12 10 12 14 11 10 10 10
19 18 17 16 17 16 14 13 14 17 18 18 17 14 11 11 11 10 10 11 10 10 14 21 23 19 18 17 12 7 5 4 3 7 11 12 12 13 13 13 13 11 10 12 11 10 12 14 12 10 13 13 11 12 11 11 14 24 31 30 26 24 26 28 27 29 31 29 23 17 12 10 9 8 9 14 14 11 12 13 10 7 8 10 8
15 13 10 10 12 11 8 7 11 15 17 18 17 14 11 10 11 11 12 13 9 7 13 21 19 13 11 11 9 7 5 4 8 14 15 11 11 12 10 10 11 10 9 11 11 10 11 13 11 12 15 15 12 14 20 25 28 31 32 28 19 12 14 21 21 16 11 9 6 6 8 9 11 13 15 14 12 11 10 8 5 7 9 8 8
9 8 6 6 8 8 5 3 4 6 7 8 8 7 7 7 5 6 9 12 10 9 14 18 14 9 9 10 9 10 11 11 12 15 14 12 13 12 8 8 11 10 9 11 12 11 11 11 12 15 16 14 18 27 30 32 37 34 17 4 4 8 9 11 15 15 12 8 6 7 11 13 15 14 12 10 11 9 5 4 7 9 8 9 12
6 6 5 4 5 5 3 2 2 2 4 5 5 5 5 6 5 8 12 13 10 9 12 13 11 9 9 9 9 12 15 15 14 15 16 17 15 11 7 8 10 11 12 12 12 12 13 13 16 22 22 19 26 34 29 20 21 16 -5 -17 -9 4 10 13 15 13 11 10 10 9 10 13 14 11 7 6 9 9 6 6 7 8 9 11 12
8 7 6 5 4 3 3 3 3 2 3 4 4 3 4 6 8 11 14 14 11 8 8 10 10 5 0 2 8 13 14 15 16 16 15 14 12 9 8 10 10 10 14 14 12 13 17 17 17 20 23 23 25 27 23 19 15 1 -15 -15 -4 3 7 13 17 13 9 9 10 9 8 9 9 8 5 6 9 9 7 6 7 8 10 11 10
Height
5910 5911 5913 5914 5916 5917 5919 5920 5922 5923 5925 5926 5927 5927 5928 5929 5930 5931 5932 5932 5933 5933 5934 5934 5935 5935 5935 5936 5936 5936 5936 5936 5937 5937 5937 5937 5937 5937 5938 5938 5938 5938 5938 5938 5938 5938 5938 5938 5937 5937 5937 5937 5936 5936 5935 5935 5934 5934 5933 5933 5932 5931 5931 5930 5929 5928 5927 5926 5925 5924 5923 5922 5921 5920 5919 5918 5916 5915 5913 5912 5910 5908 5907 5905 5904
5908 5909 5911 5912 5914 5915 5917 5919 5920 5922 5923 5925 5925 5926 5927 5928 5928 5929 5930 5930 5931 5931 5932 5932 5933 5933 5933 5933 5934 5934 5934 5934 5935 5935 5935 5935 5935 5935 5936 5936 5936 5937 5937 5937 5937 5937 5936 5936 5936 5936 5936 5936 5935 5935 5934 5934 5933 5933 5932 5931 5931 5930 5930 5929 5929 5928 5927 5925 5924 5924 5923 5922 5920 5919 5918 5916 5914 5912 5911 5910 5908 5906 5904 5903 5901
5906 5907 5909 5911 5912 5914 5916 5917 5919 5920 5922 5923 5924 5925 5925 5926 5927 5928 5928 5928 5929 5929 5929 5930 5931 5931 5931 5931 5931 5932 5932 5932 5932 5933 5933 5933 5933 5933 5934 5934 5934 5934 5935 5935 5935 5935 5935 5935 5935 5935 5934 5934 5934 5933 5933 5933 5932 5932 5931 5930 5930 5929 5928 5928 5927 5927 5926 5925 5924 5923 5922 5921 5919 5918 5916 5915 5913 5911 5909 5907 5905 5904 5902 5900 5899
5904 5906 5907 5909 5911 5913 5915 5916 5918 5919 5920 5921 5922 5923 5924 5925 5925 5926 5926 5926 5927 5927 5927 5928 5928 5929 5929 5929 5929 5929 5929 5929 5930 5930 5931 5931 5931 5931 5932 5932 5932 5932 5932 5933 5933 5933 5933 5933 5933 5933 5933 5932 5932 5932 5931 5931 5931 5930 5930 5929 5929 5928 5927 5926 5925 5925 5924 5923 5922 5921 5920 5919 5918 5916 5914 5913 5911 5909 5907 5905 5903 5901 5900 5898 5897
5903 5904 5906 5907 5910 5912 5913 5914 5916 5917 5918 5919 5920 5921 5922 5923 5924 5924 5924 5925 5925 5925 5926 5926 5926 5926 5927 5927 5927 5927 5927 5927 5927 5928 5928 5929 5928 5929 5929 5929 5930 5930 5930 5930 5930 5931 5931 5931 5931 5931 5931 5930 5930 5930 5929 5929 5929 5929 5929 5928 5927 5926 5926 5924 5923 5922 5921 5921 5920 5919 5918 5917 5916 5915 5913 5911 5909 5907 5905 5903 5901 5899 5898 5896 5895
5901 5903 5904 5906 5908 5910 5911 5913 5914 5915 5916 5918 5919 5920 5921 5921 5922 5922 5922 5923 5923 5924 5924 5924 5924 5924 5924 5925 5925 5925 5925 5925 5926 5926 5926 5926 5926 5926 5926 5927 5927 5927 5927 5927 5927 5928 5928 5928 5929 5929 5929 5929 5928 5928 5927 5927 5927 5927 5927 5926 5925 5925 5924 5923 5922 5920 5919 5918 5917 5916 5915 5914 5914 5913 5911 5908 5907 5905 5903 5901 5900 5898 5896 5894 5893
5899 5901 5902 5905 5907 5908 5910 5911 5912 5913 5914 5915 5916 5918 5919 5919 5920 5920 5921 5921 5922 5922 5922 5922 5922 5922 5922 5923 5923 5924 5924 5924 5924 5924 5924 5924 5924 5924 5924 5924 5924 5925 5925 5925 5925 5925 5925 5926 5926 5927 5927 5927 5926 5926 5925 5925 5925 5924 5924 5924 5924 5923 5922 5921 5920 5919 5917 5916 5914 5913 5912 5911 5910 5909 5908 5906 5905 5903 5902 5900 5898 5896 5894 5892 5890
5897 5899 5901 5903 5905 5907 5908 5909 5910 5911 5912 5913 5914 5915 5916 5917 5918 5918 5919 5919 5920 5920 5920 5920 5921 5921 5921 5921 5922 5922 5922 5922 5922 5923 5922 5922 5923 5923 5923 5922 5922 5923 5923 5923 5923 5923 5923 5924 5924 5925 5925 5925 5925 5924 5924 5923 5922 5922 5922 5921 5921 5921 5920 5919 5918 5917 5916 5914 5913 5911 5910 5908 5907 5906 5905 5904 5902 5901 5900 5898 5896 5894 5892 5890 5888
5896 5898 5900 5901 5903 5904 5905 5907 5908 5909 5910 5911 5912 5913 5914 5914 5915 5916 5916 5917 5917 5918 5918 5918 5919 5919 5919 5920 5920 5921 5921 5921 5921 5921 5921 5921 5921 5922 5922 5921 5921 5921 5921 5921 5921 5921 5922 5922 5922 5923 5923 5923 5923 5923 5922 5922 5921 5920 5919 5919 5918 5918 5918 5917 5916 5915 5914 5912 5911 5909 5907 5906 5904 5903 5902 5901 5900 5898 5897 5895 5893 5892 5890 5888 5886
5895 5897 5899 5900 5901 5901 5902 5904 5906 5907 5908 5909 5909 5910 5911 5912 5913 5914 5915 5915 5915 5915 5916 5917 5917 5918 5918 5919 5919 5919 5919 5920 5920 5920 5920 5920 5920 5920 5920 5920 5920 5919 5920 5920 5920 5920 5920 5920 5921 5921 5921 5921 5921 5921 5920 5920 5919 5918 5917 5916 5916 5915 5914 5914 5914 5913 5911 5910 5908 5907 5905 5903 5902 5900 5899 5898 5896 5895 5894 5892 5890 5888 5887 5885 5883
5894 5895 5897 5898 5899 5899 5900 5901 5903 5904 5905 5906 5907 5908 5909 5910 5911 5912 5913 5913 5913 5913 5914 5915 5916 5916 5916 5917 5918 5918 5918 5918 5919 5919 5919 5919 5919 5919 5919 5919 5919 5919 5919 5919 5919 5919 5919 5919 5919 5919 5919 5920 5919 5919 5918 5917 5917 5916 5915 5914 5913 5913 5912 5911 5910 5909 5909 5908 5906 5904 5903 5901 5899 5897 5896 5894 5893 5892 5890 5888 5887 5885 5883 5881 5880
5892 5894 5895 5896 5897 5897 5898 5898 5900 5901 5903 5904 5904 5905 5906 5908 5909 5910 5910 5911 5911 5911 5912 5913 5914 5914 5915 5916 5916 5917 5917 5918 5918 5918 5918 5918 5917 5917 5917 5918 5918 5918 5918 5917 5917 5917 5917 5917 5917 5917 5917 5917 5917 5916 5916 5915 5914 5913 5912 5911 5911 5910 5909 5908 5907 5906 5905 5904 5903 5901 5900 5898 5896 5894 5892 5890 5890 5888 5886 5884 5883 5881 5879 5877 5876
5890 5891 5892 5893 5895 5895 5895 5896 5897 5898 5900 5901 5902 5903 5904 5906 5907 5907 5908 5908 5909 5909 5910 5910 5911 5912 5913 5914 5915 5916 5916 5917 5917 5917 5917 5917 5916 5916 5916 5916 5917 5917 5917 5916 5916 5916 5916 5916 5915 5915 5914 5914 5914 5914 5913 5912 5911 5910 5909 5908 5908 5907 5907 5905 5904 5902 5902 5901 5900 5898 5896 5894 5892 5891 5888 5886 5885 5884 5883 5881 5879 5877 5875 5873 5871
5887 5889 5890 5891 5892 5893 5893 5893 5894 5896 5897 5898 5899 5901 5902 5903 5904 5904 5905 5905 5906 5907 5908 5908 5909 5910 5911 5913 5914 5915 5916 5916 5916 5916 5916 5915 5915 5914 5914 5915 5915 5916 5915 5915 5915 5914 5914 5913 5913 5913 5912 5911 5911 5911 5910 5910 5909 5907 5906 5905 5905 5904 5904 5902 5901 5899 5898 5897 5896 5895 5893 5891 5889 5887 5884 5882 5880 5879 5878 5877 5875 5873 5871 5869 5867
5885 5886 5887 5888 5889 5890 5890 5891 5892 5893 5895 5896 5897 5899 5900 5900 5901 5901 5902 5903 5904 5905 5906 5907 5908 5909 5910 5911 5912 5914 5914 5914 5914 5914 5914 5914 5913 5913 5912 5912 5913 5914 5914 5913 5913 5912 5912 5911 5910 5910 5909 5908 5909 5908 5907 5906 5905 5904 5902 5902 5901 5900 5900 5899 5898 5896 5894 5893 5891 5890 5889 5887 5885 5883 5881 5879 5877 5874 5873 5872 5870 5868 5867 5865 5863
5883 5884 5885 5886 5886 5887 5888 5889 5890 5891 5892 5893 5895 5896 5897 5898 5898 5898 5899 5900 5901 5902 5903 5905 5906 5907 5908 5909 5910 5911 5912 5912 5912 5913 5913 5912 5911 5911 5910 5910 5910 5911 5911 5911 5910 5910 5910 5909 5908 5907 5906 5905 5905 5905 5903 5902 5901 5901 5899 5898 5897 5896 5896 5895 5894 5893 5891 5889 5887 5886 5884 5883 5882 5880 5877 5875 5874 5871 5868 5867 5865 5863 5862 5861 5858
5881 5882 5882 5883 5884 5884 5885 5886 5887 5888 5890 5891 5892 5894 5894 5895 5896 5896 5897 5898 5899 5900 5901 5902 5903 5904 5905 5906 5907 5908 5909 5909 5910 5910 5910 5910 5910 5909 5908 5907 5907 5908 5908 5907 5907 5907 5907 5906 5905 5904 5903 5902 5901 5901 5899 5898 5897 5897 5896 5894 5893 5891 5891 5892 5891 5889 5887 5885 5884 5882 5880 5879 5877 5875 5874 5872 5870 5867 5864 5862 5860 5858 5857 5856 5853
5878 5879 5880 5881 5882 5883 5883 5884 5885 5886 5887 5889 5890 5891 5892 5892 5893 5894 5894 5895 5896 5897 5898 5899 5900 5901 5902 5903 5904 5905 5906 5906 5907 5907 5908 5908 5907 5907 5906 5905 5904 5905 5905 5904 5903 5903 5903 5902 5902 5901 5900 5899 5897 5897 5895 5893 5893 5892 5891 5889 5887 5886 5887 5887 5886 5886 5883 5880 5880 5878 5876 5874 5872 5871 5869 5867 5866 5864 5860 5858 5855 5853 5851 5850 5847
5874 5876 5877 5878 5880 5880 5881 5882 5883 5884 5885 5886 5887 5888 5889 5890 5891 5891 5892 5893 5893 5894 5895 5897 5898 5898 5899 5900 5901 5902 5903 5904 5904 5905 5905 5904 5904 5904 5903 5902 5902 5902 5901 5900 5899 5898 5898 5898 5897 5897 5896 5894 5893 5893 5892 5889 5888 5887 5887 5885 5882 5883 5883 5881 5880 5881 5879 5876 5875 5873 5871 5869 5867 5866 5864 5863 5861 5859 5857 5854 5851 5848 5846 5845 5842
5870 5872 5873 5875 5877 5878 5879 5880 5881 5882 5883 5884 5885 5886 5887 5888 5888 5889 5890 5890 5891 5892 5893 5894 5895 5896 5897 5898 5899 5900 5901 5901 5902 5902 5902 5901 5901 5900 5899 5899 5899 5898 5897 5895 5894 5894 5894 5893 5892 5893 5891 5889 5887 5887 5887 5886 5884 5882 5881 5880 5879 5879 5877 5874 5873 5875 5875 5872 5870 5868 5866 5865 5862 5860 5859 5857 5856 5854 5852 5849 5846 5843 5841 5840 5838
5866 5868 5870 5872 5873 5875 5876 5877 5878 5879 5880 5880 5882 5883 5884 5885 5886 5886 5887 5888 5889 5889 5890 5891 5892 5893 5894 5895 5896 5897 5898 5898 5898 5899 5898 5898 5897 5896 5895 5895 5895 5894 5892 5891 5890 5890 5889 5888 5887 5887 5886 5884 5881 5881 5881 5881 5880 5877 5876 5876 5876 5874 5871 5868 5867 5868 5868 5867 5865 5863 5860 5859 5857 5855 5854 5852 5850 5848 5846 5843 5841 5838 5835 5834 5832
5863 5865 5867 5868 5870 5872 5873 5874 5875 5876 5877 5878 5879 5880 5881 5882 5883 5884 5885 5885 5886 5887 5888 5888 5889 5890 5890 5891 5892 5893 5893 5893 5894 5895 5895 5894 5893 5891 5891 5891 5890 5888 5887 5886 5886 5885 5884 5883 5881 5881 5881 5879 5876 5875 5875 5875 5874 5872 5871 5871 5870 5868 5865 5862 5860 5860 5860 5860 5859 5858 5856 5854 5852 5850 5849 5847 5844 5842 5840 5838 5836 5833 5830 5828 5826
5859 5861 5863 5864 5866 5867 5869 5871 5872 5873 5874 5875 5876 5876 5877 5878 5880 5881 5881 5882 5883 5884 5885 5885 5885 5886 5886 5887 5887 5888 5888 5888 5889 5890 5890 5890 5888 5887 5887 5886 5885 5883 5881 5881 5881 5880 5879 5877 5876 5875 5875 5873 5872 5870 5869 5868 5867 5866 5866 5865 5863 5861 5859 5855 5853 5853 5853 5853 5853 5853 5851 5849 5847 5845 5843 5841 5839 5836 5834 5833 5831 5829 5825 5823 5821
5856 5858 5859 5861 5862 5864 5865 5867 5868 5869 5871 5871 5872 5873 5874 5875 5876 5877 5878 5879 5879 5880 5881 5881 5881 5882 5882 5882 5882 5882 5882 5882 5883 5883 5884 5885 5883 5882 5882 5881 5879 5877 5875 5875 5875 5875 5873 5871 5870 5869 5869 5868 5867 5865 5863 5861 5860 5860 5859 5858 5855 5853 5851 5849 5847 5847 5846 5846 5846 5846 5845 5844 5842 5839 5837 5835 5832 5830 5829 5828 5826 5823 5820 5818 5817
5852 5854 5855 5857 5858 5859 5861 5863 5864 5866 5867 5868 5869 5870 5870 5871 5872 5873 5874 5875 5875 5876 5876 5877 5877 5877 5878 5877 5877 5877 5877 5876 5876 5876 5877 5878 5877 5877 5876 5875 5873 5871 5869 5869 5869 5868 5866 5864 5863 5862 5862 5862 5861 5860 5858 5856 5854 5852 5851 5850 5848 5846 5844 5842 5840 5839 5838 5838 5838 5838 5838 5837 5835 5833 5831 5829 5827 5825 5824 5822 5820 5817 5814 5813 5811
5849 5850 5852 5853 5854 5855 5857 5858 5860 5861 5862 5864 5865 5866 5867 5867 5868 5869 5869 5870 5871 5871 5872 5872 5872 5872 5872 5872 5872 5872 5871 5871 5870 5869 5869 5869 5871 5871 5870 5869 5868 5866 5863 5863 5863 5862 5859 5857 5855 5855 5855 5855 5854 5854 5853 5851 5848 5846 5844 5841 5839 5838 5836 5834 5832 5831 5831 5830 5830 5829 5829 5829 5828 5826 5824 5822 5821 5819 5817 5816 5813 5810 5808 5807 5805
5845 5846 5847 5849 5850 5851 5853 5854 5856 5857 5858 5859 5860 5862 5863 5863 5863 5864 5865 5865 5866 5866 5867 5867 5867 5867 5867 5866 5866 5866 5866 5865 5864 5862 5861 5862 5864 5864 5864 5862 5861 5859 5857 5857 5856 5854 5851 5848 5847 5847 5847 5847 5846 5846 5846 5845 5842 5839 5836 5833 5830 5829 5828 5826 5824 5822 5821 5822 5821 5820 5820 5819 5818 5817 5815 5815 5815 5813 5811 5810 5807 5804 5802 5801 5800
5840 5842 5843 5844 5846 5847 5848 5849 5851 5852 5853 5855 5856 5857 5858 5858 5859 5860 5860 5860 5860 5861 5861 5862 5862 5861 5861 5861 5860 5860 5860 5859 5858 5856 5855 5856 5856 5856 5856 5855 5854 5852 5851 5850 5849 5846 5842 5840 5840 5840 5840 5839 5838 5837 5836 5836 5834 5831 5827 5825 5822 5820 5819 5817 5814 5811 5812 5812 5811 5810 5810 5810 5809 5808 5807 5807 5806 5805 5804 5803 5800 5797 5795 5795 5794
5835 5837 5838 5840 5841 5842 5844 5845 5846 5847 5848 5850 5851 5852 5853 5854 5854 5854 5855 5855 5856 5856 5856 5856 5856 5856 5855 5855 5855 5855 5854 5853 5852 5851 5850 5849 5849 5848 5848 5847 5846 5845 5844 5842 5841 5838 5835 5833 5832 5833 5832 5831 5830 5829 5827 5826 5824 5821 5819 5817 5814 5811 5808 5806 5803 5801 5802 5801 5799 5799 5800 5800 5800 5799 5798 5798 5798 5797 5797 5796 5793 5789 5788 5788 5788
5830 5832 5833 5835 5836 5838 5839 5840 5841 5843 5844 5845 5846 5847 5848 5848 5849 5849 5849 5850 5851 5851 5851 5850 5850 5850 5849 5849 5849 5849 5849 5848 5846 5844 5843 5842 5841 5840 5840 5839 5839 5838 5837 5835 5833 5830 5828 5827 5826 5825 5825 5824 5822 5820 5819 5817 5814 5812 5810 5808 5805 5801 5797 5793 5790 5789 5788 5787 5787 5787 5788 5789 5790 5791 5791 5790 5789 5788 5788 5788 5785 5781 5780 5781 5782
5826 5827 5829 5830 5832 5834 5834 5835 5837 5838 5838 5839 5841 5842 5842 5843 5843 5843 5844 5845 5845 5845 5845 5845 5845 5844 5843 5843 5842 5842 5842 5841 5840 5838 5837 5836 5834 5833 5832 5832 5832 5831 5830 5828 5826 5824 5822 5820 5818 5818 5817 5816 5814 5813 5810 5807 5804 5802 5801 5799 5795 5792 5788 5783 5779 5776 5774 5774 5775 5776 5776 5778 5780 5782 5782 5782 5780 5779 5780 5779 5777 5774 5773 5775 5776
5821 5823 5825 5826 5827 5828 5829 5830 5832 5833 5833 5834 5835 5836 5836 5837 5837 5838 5839 5838 5838 5838 5839 5839 5839 5838 5838 5837 5836 5835 5835 5834 5833 5832 5831 5830 5828 5827 5825 5824 5823 5822 5821 5819 5818 5818 5816 5814 5811 5810 5808 5806 5805 5804 5801 5798 5795 5792 5790 5787 5784 5783 5780 5775 5770 5766 5764 5763 5764 5764 5765 5767 5770 5771 5772 5772 5772 5772 5771 5770 5769 5767 5766 5768 5770
5816 5818 5819 5820 5822 5823 5824 5825 5826 5827 5828 5829 5829 5829 5830 5831 5831 5832 5832 5831 5831 5831 5832 5832 5832 5832 5832 5831 5830 5829 5828 5827 5826 5825 5824 5823 5822 5820 5819 5817 5816 5814 5813 5810 5809 5809 5808 5805 5803 5802 5800 5797 5794 5792 5790 5788 5786 5783 5780 5776 5774 5772 5768 5763 5759 5757 5755 5753 5753 5753 5754 5756 5758 5760 5760 5761 5762 5763 5762 5761 5760 5759 5760 5762 5764
5811 5813 5814 5815 5816 5817 5819 5820 5821 5822 5822 5823 5823 5824 5824 5824 5825 5826 5826 5824 5824 5825 5825 5825 5825 5825 5824 5824 5823 5822 5822 5821 5820 5818 5817 5816 5814 5813 5812 5810 5809 5807 5805 5803 5801 5799 5798 5795 5794 5792 5791 5788 5785 5782 5779 5777 5776 5774 5771 5767 5765 5762 5757 5752 5749 5747 5744 5742 5742 5743 5744 5746 5747 5749 5750 5750 5752 5753 5753 5752 5753 5754 5756 5756 5756
5806 5807 5808 5809 5810 5812 5813 5814 5815 5815 5816 5817 5818 5818 5818 5818 5818 5819 5819 5818 5818 5818 5818 5818 5818 5818 5817 5816 5816 5815 5814 5813 5812 5811 5810 5809 5808 5807 5805 5803 5801 5799 5798 5796 5793 5791 5789 5786 5784 5782 5781 5779 5777 5773 5769 5767 5765 5764 5761 5758 5756 5753 5749 5744 5740 5736 5733 5731 5731 5732 5733 5734 5735 5737 5740 5742 5743 5743 5743 5744 5745 5747 5748 5748 5749
5800 5801 5802 5803 5804 5806 5807 5808 5809 5809 5810 5811 5811 5811 5812 5812 5812 5812 5812 5812 5812 5811 5811 5812 5812 5811 5810 5809 5809 5808 5807 5806 5805 5804 5803 5802 5801 5800 5798 5796 5794 5792 5790 5788 5786 5784 5782 5779 5776 5774 5771 5770 5768 5765 5761 5758 5756 5754 5752 5749 5745 5742 5739 5735 5729 5726 5723 5721 5719 5719 5721 5723 5725 5728 5732 5735 5736 5736 5736 5736 5737 5739 5740 5742 5744
5793 5794 5796 5797 5798 5800 5801 5801 5802 5803 5804 5804 5805 5805 5806 5806 5806 5805 5806 5806 5805 5805 5805 5805 5805 5804 5803 5802 5802 5801 5799 5798 5797 5796 5795 5795 5794 5792 5790 5788 5786 5784 5782 5780 5778 5777 5774 5772 5769 5766 5763 5761 5760 5757 5754 5750 5747 5745 5742 5739 5735 5731 5727 5723 5717 5713 5711 5710 5709 5708 5710 5712 5716 5721 5725 5727 5729 5729 5728 5728 5729 5733 5737 5739 5741
5787 5788 5790 5791 5792 5793 5794 5795 5796 5797 5797 5798 5799 5799 5799 5799 5799 5799 5799 5799 5799 5798 5799 5799 5798 5797 5797 5796 5794 5793 5792 5791 5790 5789 5788 5788 5787 5785 5783 5780 5778 5776 5774 5772 5771 5769 5767 5765 5762 5760 5757 5754 5752 5749 5746 5743 5740 5736 5733 5729 5725 5721 5715 5709 5702 5696 5695 5698 5702 5703 5704 5705 5709 5714 5717 5719 5719 5720 5720 5720 5724 5729 5734 5735 5735
5780 5782 5783 5784 5785 5786 5788 5789 5789 5790 5791 5791 5792 5793 5793 5793 5792 5792 5792 5792 5792 5791 5792 5792 5791 5790 5789 5788 5787 5785 5784 5783 5782 5782 5782 5780 5779 5777 5775 5774 5771 5769 5767 5765 5763 5761 5759 5757 5755 5753 5750 5747 5744 5742 5739 5736 5732 5727 5723 5719 5716 5712 5706 5699 5691 5687 5687 5691 5695 5698 5700 5702 5703 5706 5710 5712 5712 5713 5715 5718 5722 5726 5728 5728 5729
5773 5774 5775 5777 5778 5780 5781 5782 5782 5783 5783 5784 5785 5786 5786 5785 5785 5785 5785 5784 5784 5783 5784 5784 5783 5781 5780 5780 5779 5778 5777 5776 5776 5776 5775 5773 5772 5770 5769 5767 5765 5763 5761 5758 5756 5754 5751 5749 5748 5746 5743 5740 5737 5734 5731 5728 5724 5719 5715 5711 5707 5705 5701 5696 5691 5689 5689 5691 5692 5694 5697 5699 5699 5700 5703 5706 5707 5710 5714 5718 5720 5722 5722 5722 5723
5765 5767 5768 5769 5771 5772 5773 5774 5775 5776 5776 5777 5778 5778 5778 5777 5777 5777 5777 5777 5776 5774 5774 5776 5775 5773 5772 5772 5772 5771 5770 5770 5769 5769 5768 5767 5765 5764 5762 5760 5758 5756 5754 5751 5749 5746 5744 5741 5739 5738 5736 5733 5730 5727 5724 5721 5717 5713 5710 5705 5701 5698 5697 5695 5693 5693 5692 5691 5690 5692 5695 5696 5696 5696 5699 5702 5705 5708 5711 5714 5715 5715 5716 5717 5718
5758 5759 5761 5762 5763 5764 5765 5767 5767 5768 5769 5770 5770 5770 5770 5770 5770 5769 5769 5769 5768 5766 5766 5767 5767 5766 5765 5765 5764 5764 5764 5763 5763 5762 5761 5759 5758 5757 5756 5754 5751 5749 5747 5744 5742 5740 5737 5734 5732 5731 5729 5727 5724 5720 5717 5715 5712 5708 5705 5701 5696 5693 5691 5689 5689 5691 5692 5688 5687 5690 5693 5693 5693 5695 5698 5700 5703 5705 5707 5707 5708 5709 5710 5712 5714
5751 5752 5753 5754 5755 5756 5758 5759 5759 5760 5761 5762 5762 5762 5762 5762 5762 5761 5762 5761 5760 5759 5759 5759 5759 5759 5758 5757 5757 5757 5756 5756 5755 5754 5753 5752 5751 5749 5748 5746 5744 5742 5740 5738 5735 5733 5730 5728 5726 5724 5722 5720 5717 5714 5711 5709 5706 5703 5700 5696 5692 5689 5688 5685 5683 5684 5685 5683 5683 5687 5690 5690 5691 5694 5696 5697 5699 5700 5701 5702 5703 5704 5706 5708 5710
5744 5745 5745 5746 5747 5748 5749 5750 5751 5751 5752 5753 5754 5753 5754 5754 5754 5754 5754 5754 5753 5753 5752 5752 5751 5751 5750 5750 5750 5749 5749 5748 5747 5746 5745 5744 5743 5741 5739 5739 5737 5735 5733 5731 5729 5726 5724 5722 5720 5718 5715 5713 5710 5708 5705 5702 5700 5697 5696 5693 5690 5688 5688 5687 5687 5686 5685 5683 5684 5686 5687 5688 5690 5692 5693 5693 5693 5695 5696 5698 5699 5701 5702 5704 5706
5736 5737 5737 5738 5739 5740 5741 5742 5743 5743 5744 5745 5746 5745 5746 5746 5747 5747 5747 5746 5746 5746 5745 5744 5743 5743 5743 5742 5742 5742 5741 5741 5740 5739 5738 5736 5735 5733 5732 5731 5730 5728 5726 5724 5722 5720 5718 5716 5713 5711 5709 5707 5705 5702 5700 5697 5694 5692 5691 5690 5688 5686 5684 5685 5687 5688 5687 5685 5685 5685 5685 5686 5687 5688 5688 5689 5690 5691 5693 5694 5696 5698 5699 5701 5703
5728 5729 5730 5731 5731 5733 5734 5735 5735 5736 5736 5737 5737 5738 5738 5739 5739 5739 5739 5738 5738 5738 5737 5736 5736 5736 5735 5735 5735 5735 5734 5734 5733 5732 5730 5729 5727 5726 5725 5723 5722 5721 5719 5717 5715 5713 5712 5710 5707 5705 5703 5701 5699 5697 5695 5692 5690 5688 5686 5685 5685 5683 5681 5679 5680 5681 5682 5682 5682 5681 5681 5682 5683 5684 5685 5686 5687 5688 5690 5691 5693 5695 5696 5698 5699
5720 5722 5723 5723 5724 5725 5726 5727 5728 5728 5729 5729 5730 5731 5731 5731 5732 5732 5731 5731 5730 5730 5730 5729 5729 5729 5728 5727 5727 5727 5727 5726 5724 5723 5722 5721 5720 5719 5718 5716 5715 5714 5713 5710 5708 5706 5705 5704 5702 5699 5697 5695 5693 5692 5690 5688 5685 5683 5682 5681 5681 5680 5679 5677 5676 5676 5678 5679 5679 5679 5679 5680 5681 5682 5683 5683 5684 5685 5687 5688 5690 5692 5693 5694 5695
5712 5714 5715 5716 5717 5718 5719 5719 5720 5721 5721 5722 5723 5723 5723 5723 5723 5723 5723 5723 5722 5722 5721 5721 5721 5721 5721 5720 5719 5719 5719 5718 5716 5715 5714 5713 5712 5711 5710 5709 5708 5707 5706 5704 5702 5700 5699 5697 5695 5693 5691 5690 5688 5686 5684 5682 5680 5678 5677 5678 5678 5677 5676 5676 5676 5675 5676 5677 5677 5677 5678 5678 5679 5680 5680 5681 5681 5682 5684 5685 5687 5688 5689 5690 5691
5704 5706 5707 5708 5709 5710 5710 5711 5712 5712 5713 5713 5714 5714 5714 5714 5714 5714 5714 5714 5714 5714 5713 5713 5713 5713 5713 5713 5712 5712 5711 5710 5709 5708 5707 5706 5704 5704 5703 5702 5701 5700 5699 5697 5696 5694 5692 5690 5689 5687 5685 5684 5683 5681 5679 5677 5676 5675 5674 5673 5674 5674 5674 5674 5674 5675 5675 5675 5675 5675 5675 5676 5676 5677 5677 5678 5679 5680 5681 5682 5683 5684 5685 5686 5686
5696 5697 5698 5699 5700 5701 5702 5702 5703 5703 5704 5705 5705 5705 5705 5705 5705 5705 5705 5706 5706 5706 5706 5705 5705 5705 5705 5705 5705 5705 5704 5703 5701 5700 5699 5698 5697 5696 5696 5695 5694 5694 5693 5691 5689 5688 5686 5684 5683 5682 5680 5679 5678 5678 5676 5675 5674 5673 5671 5669 5669 5670 5670 5671 5671 5672 5672 5672 5672 5671 5672 5672 5673 5674 5674 5674 5676 5677 5678 5678 5678 5679 5680 5681 5681
5687 5688 5689 5690 5691 5692 5693 5693 5694 5694 5695 5695 5696 5696 5696 5696 5696 5697 5697 5697 5697 5697 5697 5697 5698 5698 5698 5698 5697 5697 5696 5695 5694 5693 5692 5691 5690 5689 5689 5688 5688 5687 5686 5685 5683 5681 5681 5680 5679 5678 5677 5676 5675 5675 5674 5673 5673 5671 5669 5667 5667 5667 5667 5667 5667 5668 5668 5668 5668 5668 5668 5669 5670 5670 5670 5671 5672 5673 5674 5674 5674 5675 5675 5676 5676